Regional Weather Roundup
Issued by NWS

Home | Current Version | Previous Version | Text Only | Print | Product List | Glossary On
Versions: 1 2 3 4 5 6 7 8 9 10 11 12 13 14 15 16 17 18 19 20 21 22 23 24 25 26 27 28 29 30 31 32 33 34 35 36 37 38 39 40 41 42 43 44 45 46 47 48 49 50
000
ASCA44 KEWX 281920
RWRMX

LATIN AMERICA AND CARIBBEAN REGIONAL WEATHER ROUNDUP
NATIONAL WEATHER SERVICE AUSTIN/SAN ANTONIO TX
200 PM CDT FRI JUL 28 2017

NOTE: "FAIR" INDICATED FEW OR NO CLOUDS BELOW 12,000 FEET WITH NO
SIGNIFICANT WEATHER AND/OR OBSTRUCTIONS TO VISIBILITY.

BAJA CALIFORNIA

CITY           SKY/WX    TMP DP  RH WIND       PRES   REMARKS
LORETO         PTSUNNY   88  79  74 E12       29.89F HX 102
LA PAZ         MOSUNNY   93  59  31 NE8       29.92F HX  92
MEXICALI       MOSUNNY   99  59  26 SE12      29.83F HX  98
S.J. DEL CABO  LGT RAIN  81  70  69 N21       29.93F
TIJUANA        SUNNY     77  64  65 W8        29.97S

NORTHWESTERN MEXICO

CITY           SKY/WX    TMP DP  RH WIND       PRES   REMARKS
CULIACAN       PTSUNNY   91  73  55 N8        29.92F HX 100
DURANGO        MOSUNNY   73  55  53 E2        30.26F
GUAYMAS        MOSUNNY   90  75  62 S12       29.88F HX 100
HERMOSILLO     MOSUNNY   90  72  55 SE6       29.98S HX  96
CD. JUAREZ     MOSUNNY   88  59  37 CALM      30.10F
LOS MOCHIS     CLOUDY    81  72  74 SE9       29.93F
OBREGON        PTSUNNY   90  72  55 S7        29.90F HX  96

NORTHEASTERN MEXICO

CITY           SKY/WX    TMP DP  RH WIND       PRES   REMARKS
CHIHUAHUA      PTSUNNY   82  57  42 CALM      30.14F
MATAMOROS      MOSUNNY   95  66  38 S16       29.93F HX  98
MONCLOVA         N/A    N/A N/A N/A MISG        N/A
MONTERREY      SUNNY     93  61  33 E8        29.92F HX  93
NUEVO LAREDO   MOSUNNY   99  64  32 SE15      29.90F HX 101
PIEDRAS NEGRAS MOSUNNY   95  73  49 E12       29.93F HX 105
REYNOSA        SUNNY     95  59  30 SE17      29.90F HX  94
SALTILLO       PTSUNNY   90  68  48 NE8       30.16F HX  93
TORREON        MOSUNNY   90  57  33 E5        30.05F
CD. VICTORIA   SUNNY     95  59  30 S21       29.91F HX  94

WESTERN MEXICO

CITY           SKY/WX    TMP DP  RH WIND       PRES   REMARKS
AGUASCALIENTES MOSUNNY   77  52  41 SE3       30.27F
COLIMA         MOSUNNY   84  72  65 CALM      30.01F
DEL BAJIO      MOSUNNY   75  57  53 W5        30.30F
GUADALAJARA    PTSUNNY   77  59  53 E7        30.20F
MANZANILLO     MOSUNNY   91  79  66 W14       29.84F HX 107
MAZATLAN       MOSUNNY   90  77  66 W9        29.90F HX 102
P. VALLARTA    PTSUNNY   88  79  74 SW9       29.87F HX 102
URUAPAN        PTSUNNY   73  63  68 S12       30.18F
ZACATECAS      PTSUNNY   73  50  43 CALM      30.30F

CENTRAL MEXICO

CITY           SKY/WX    TMP DP  RH WIND       PRES   REMARKS
CUERNAVACA     MOSUNNY   81  52  36 S8        30.13F
MEXICO CITY    MOSUNNY   72  46  40 VRB3      30.32F
MORELIA        MOSUNNY   75  59  57 N5        30.24F
POZA RICA      MOSUNNY   91  77  62 NE9       29.99F HX 105
PUEBLA         MOSUNNY   72  41  33 N3        30.33F
QUERETARO      MOSUNNY   73  59  60 CALM      30.30F
S. LUIS POTOSI MOSUNNY   73  48  40 N9        30.26F
TAMPICO        MOSUNNY   88  73  62 E9        29.85F HX  96
TOLUCA         MOSUNNY   70  46  43 W5        30.38F

SOUTHERN MEXICO

CITY           SKY/WX    TMP DP  RH WIND       PRES   REMARKS
ACAPULCO       MOSUNNY   88  75  66 W8        29.85F HX  97
B. DE HUATULCO MOSUNNY  N/A N/A N/A S12       29.90F
OAXACA         MOSUNNY   77  55  47 NW6       30.20F
P. ESCONDIDO   MOSUNNY   88  77  70 S9        29.96F HX 100
VERACRUZ       MOSUNNY   88  77  70 E7        29.94F HX 100
ZIHUATANEJO    MOSUNNY   91  81  70 SW6       29.86F HX 110

YUCATAN PENINSULA

CITY           SKY/WX    TMP DP  RH WIND       PRES   REMARKS
CAMPECHE       MOSUNNY   88  79  74 W12       29.91F HX 102
CANCUN         MOSUNNY   91  77  62 NE8       29.93F HX 105
CHETUMAL       MOSUNNY   90  75  62 SE13      29.91F HX 100
CD. DEL CARMEN MOSUNNY  N/A N/A N/A N12       29.93F
COZUMEL        PTSUNNY   90  79  70 E10       29.93F HX 105
MERIDA         PTSUNNY   91  73  55 N5        29.93F HX 100
MINATITLAN     MOSUNNY   88  73  62 N12       29.91F HX  96
TAPACHULA      PTSUNNY   88  77  70 S6        29.87F HX 100
TUX. GUTIERREZ MOSUNNY   90  70  51 E6        29.94F HX  95
VILLAHERMOSA   MOSUNNY   90  72  55 CALM      29.94F HX  96

CENTRAL AMERICA

CITY           SKY/WX    TMP DP  RH WIND       PRES   REMARKS
BELIZE CITY    MOSUNNY   90  79  70 E9        29.90F HX 105
MANAGUA        PTCLDY    91  75  59 E14       29.80F HX 102

CARIBBEAN

CITY           SKY/WX    TMP DP  RH WIND       PRES   REMARKS
ARUBA          MOSUNNY   91  75  59 E21       29.80F HX 102
CURACAO        MOSUNNY   88  77  70 E16       29.86S HX 100
KINGSTON       MOSUNNY   90  77  66 SE24      29.86F HX 102
NASSAU         MOSUNNY   93  77  59 S5        29.96F HX 107
SAN JUAN       MOSUNNY   88  77  70 E15       29.93  HX 100
SANTO DOMINGO  MOSUNNY   90  75  62 S7        29.92S HX 100
ST. CROIX      MOSUNNY   90  79  70 SE10      29.95  HX 105
ST. KITTS      MOSUNNY   88  75  66 E12       29.94S HX  97
ST. MAARTEN    MOSUNNY   88  79  74 SE9       29.94F HX 102
ST. THOMAS     SUNNY     90  77  66 SE13      29.94  HX 102

$$




USA.gov is the U.S. government's official web portal to all federal, state and local government web resources and services.